Flag for Poland Weather past 2 weeks in Rybnik, Poland

Now
39 °F

Light rain. Partly sunny.


Feels Like: 29 °F
Forecast: 44 / 50 °F
Wind: 20 mph from Southwest

Location: Katowice Airport

Current Time: Dec 22, 2014 at 8:27:10 AM

Latest Report: Dec 22, 2014 at 8:00 AM


Visibility: N/A

Pressure: 29.92 "Hg

Humidity: 87%

Dew point: 36 °F

Location of RybnikLocation

Historic Weather in Rybnik — Graph

°F

Rybnik temperature yesterday

Maximum temperature yesterday: 39 °F (at 5:30 PM)
Minimum temperature yesterday: 32 °F (at 10:00 AM)
Average temperature yesterday: 37 °F

Past Weeks' High & Low Weather Summary

 TemperatureHumidityPressure
High52 °F (Dec 19, 11:30 AM)100% (Dec 7, 7:00 AM)30.39 "Hg (Dec 7, 7:00 AM)
Low16 °F (Dec 10, 7:00 AM)46% (Dec 12, 8:00 PM)29.71 "Hg (Dec 12, 5:30 PM)
Average39 °F84%29.97 "Hg
* Reported Dec 7 7:00 AM — Dec 22 7:30 AM, Rybnik, Weather by CustomWeather, © 2014

Note: Actual official high and low records may vary slightly from our data, if they occured in-between our weather recording intervals... More about our weather records

Advertising

Rybnik weather history for previous 24 hours

 ConditionsComfort  
Time TempWeatherWind HumidityBarometerVisibility
7:30 AM
Dec 22
39 °FLight rain. Partly cloudy.17 mph87%29.92 "HgN/A
7:00 AM37 °FLight rain. Partly cloudy.20 mph93%29.92 "HgN/A
6:30 AM37 °FLight rain. Partly cloudy.18 mph93%29.92 "Hg4 mi
6:00 AM37 °FLight rain. Partly cloudy.17 mph93%29.92 "Hg5 mi
5:30 AM37 °FLight rain. Partly cloudy.20 mph93%29.95 "Hg4 mi
4:30 AM37 °FLight rain. Partly cloudy.15 mph93%29.98 "Hg5 mi
4:00 AM39 °FLight rain. Partly cloudy.16 mph87%30.01 "HgN/A
3:30 AM39 °FLight rain. Passing clouds.16 mph81%30.01 "HgN/A
3:00 AM37 °FPassing clouds.15 mph87%30.01 "HgN/A
2:30 AM37 °FLight rain. Passing clouds.15 mph87%30.04 "HgN/A
2:00 AM37 °FLight rain. Partly cloudy.16 mph87%30.04 "HgN/A
1:30 AM37 °FLight rain. Partly cloudy.14 mph87%30.07 "HgN/A
1:00 AM37 °FLight rain. Passing clouds.16 mph87%30.07 "HgN/A
12:30 AM37 °FLight rain. Passing clouds.16 mph87%30.07 "HgN/A
12:00 AM37 °FLight rain. Passing clouds.15 mph81%30.09 "HgN/A
11:30 PM
Dec 21
39 °FLight rain. Passing clouds.14 mph75%30.09 "HgN/A
10:30 PM37 °FPassing clouds.12 mph81%30.12 "HgN/A
10:00 PM37 °FPassing clouds.10 mph81%30.15 "HgN/A
9:30 PM37 °FPassing clouds.12 mph75%30.15 "HgN/A
9:00 PM37 °FPassing clouds.12 mph81%30.15 "HgN/A
8:30 PM37 °FPartly cloudy.14 mph81%30.15 "HgN/A
8:00 PM37 °FPassing clouds.12 mph81%30.18 "HgN/A
7:30 PM37 °FPassing clouds.14 mph81%30.18 "HgN/A
7:00 PM37 °FPartly cloudy.13 mph81%30.18 "HgN/A
6:30 PM39 °FPartly cloudy.16 mph75%30.18 "HgN/A
6:00 PM39 °FPassing clouds.14 mph75%30.18 "HgN/A
5:30 PM39 °FPassing clouds.16 mph81%30.18 "HgN/A
5:00 PM37 °FPassing clouds.14 mph87%30.18 "HgN/A
4:30 PM37 °FSprinkles. Partly cloudy.17 mph87%30.18 "Hg5 mi
4:00 PM37 °FSprinkles. Passing clouds.14 mph87%30.18 "HgN/A
3:30 PM37 °FPartly sunny.13 mph87%30.18 "HgN/A
3:00 PM37 °FPartly sunny.13 mph81%30.18 "HgN/A
2:30 PM37 °FSprinkles. Broken clouds.16 mph87%30.18 "HgN/A
2:00 PM37 °FPartly sunny.12 mph87%30.18 "HgN/A
1:30 PM37 °FSprinkles. Broken clouds.9 mph87%30.18 "HgN/A
1:00 PM37 °FSprinkles. Broken clouds.12 mph87%30.15 "Hg4 mi
12:30 PM37 °FSprinkles. Broken clouds.14 mph87%30.15 "Hg5 mi
12:00 PM37 °FSprinkles. Broken clouds.16 mph93%30.15 "Hg5 mi
11:30 AM37 °FSprinkles. Broken clouds.13 mph93%30.15 "Hg5 mi
11:00 AM36 °FSprinkles. Broken clouds.9 mph93%30.12 "Hg4 mi
10:30 AM34 °FSprinkles. Broken clouds.7 mph93%30.12 "HgN/A
10:00 AM32 °FSnow flurries. Broken clouds.13 mph100%30.12 "Hg1 mi
9:30 AM34 °FSnow flurries. Broken clouds.18 mph93%30.09 "Hg1 mi
9:00 AM36 °FSprinkles. Broken clouds.17 mph93%30.07 "HgN/A
8:30 AM36 °FSprinkles. Broken clouds.21 mph93%30.07 "HgN/A
8:00 AM36 °FSprinkles. Broken clouds.20 mph87%30.04 "HgN/A
Weather by CustomWeather, © 2014

See weather overviewHow to use our weather pages